Weather History for KUAO - November, 2012

Change the Weather History Date:

Monday, November 26, 2012

  Actual Average Record
Temperature  
Mean Temperature 40 °F -  
Max Temperature 52 °F - 62 °F (2014)
Min Temperature 28 °F - 26 °F (2013)
Degree Days  
Heating Degree Days 25    
Month to date heating degree days 434  
Since 1 July heating degree days 865  
Cooling Degree Days 0    
Month to date cooling degree days 0  
Year to date cooling degree days 295  
Moisture  
Dew Point 32 °F    
Average Humidity 82    
Maximum Humidity 100    
Minimum Humidity 63    
Precipitation  
Precipitation 0.00 in - 2.00 in (1962)
Month to date precipitation 7.45  
Year to date precipitation 44.17  
Sea Level Pressure  
Sea Level Pressure 30.07 in    
Wind  
Wind Speed 1 mph (SSE)    
Max Wind Speed 7 mph    
Max Gust Speed 8 mph    
Visibility 5 miles    
Events Fog    
T = Trace of Precipitation, MM = Missing Value Source: NWS Daily Summary

Daily Weather History Graph

Daily Weather History Graph

Search for Another Location

Airport or City:

Trip Planner

Search our weather history database for the weather conditions in past years. The results will help you decide how hot, cold, wet, or windy it might be!

Date:

Astronomy

Nov. 26, 2012 Rise Set
Actual Time 7:24 AM PST 4:32 PM PST
Civil Twilight 6:51 AM PST 5:05 PM PST
Nautical Twilight 6:15 AM PST 5:41 PM PST
Astronomical Twilight 5:39 AM PST 6:17 PM PST
Moon 3:30 PM PST (11/26) 5:37 AM PST (11/26)
Length of Visible Light 10h 13m
Length of Day
9h 07m
Waxing Gibbous, 97% of the Moon is Illuminated
Nov 26
Waxing Gibbous
Nov 28
Full
Dec 6
Last Quarter
Dec 13
New
Dec 19
First Quarter

Hourly Weather History & Observations

Time (PST) Temp. Windchill Dew Point Humidity Pressure Visibility Wind Dir Wind Speed Gust Speed Precip Events Conditions
12:53 AM 30.9 °F 27.5 °F 30.9 °F 100% 30.11 in 6.0 mi SSE 3.5 mph - N/A   Clear
1:09 AM 32.0 °F 27.5 °F 32.0 °F 100% 30.10 in 2.0 mi SE 4.6 mph - N/A   Partly Cloudy
1:11 AM 32.0 °F 27.5 °F 32.0 °F 100% 30.10 in 1.0 mi SSE 4.6 mph - N/A   Mist
1:17 AM 30.2 °F 26.7 °F 30.2 °F 100% 30.10 in 0.2 mi SSE 3.5 mph - N/A Fog Light Freezing Fog
1:53 AM 30.9 °F - 30.9 °F 100% 30.11 in 0.2 mi Calm Calm - N/A Fog Light Freezing Fog
2:02 AM 30.2 °F - 30.2 °F 100% 30.10 in 0.5 mi Calm Calm - N/A Fog Light Freezing Fog
2:14 AM 30.2 °F - 30.2 °F 100% 30.10 in 0.2 mi Calm Calm - N/A Fog Light Freezing Fog
2:53 AM 30.0 °F - 30.0 °F 100% 30.09 in 0.2 mi Calm Calm - N/A Fog Light Freezing Fog
3:06 AM 30.2 °F - 30.2 °F 100% 30.08 in 0.8 mi Calm Calm - N/A   Mist
3:23 AM 30.2 °F - 30.2 °F 100% 30.08 in 2.0 mi Calm Calm - N/A   Scattered Clouds
3:39 AM 30.2 °F - 28.4 °F 93% 30.07 in 1.5 mi Calm Calm - N/A   Partly Cloudy
3:53 AM 30.0 °F - 28.9 °F 96% 30.07 in 3.0 mi Calm Calm - N/A   Partly Cloudy
4:09 AM 30.2 °F 25.4 °F 28.4 °F 93% 30.08 in 1.8 mi South 4.6 mph - N/A   Scattered Clouds
4:12 AM 28.4 °F 24.6 °F 28.4 °F 100% 30.07 in 0.8 mi South 3.5 mph - N/A   Mist
4:22 AM 28.4 °F - 28.4 °F 100% 30.07 in 0.2 mi Calm Calm - N/A Fog Light Freezing Fog
4:33 AM 28.4 °F - 28.4 °F 100% 30.07 in 1.0 mi Calm Calm - N/A   Mist
4:38 AM 30.2 °F - 28.4 °F 93% 30.07 in 3.0 mi Calm Calm - N/A   Scattered Clouds
4:53 AM 30.0 °F - 28.9 °F 96% 30.07 in 7.0 mi Calm Calm - N/A   Clear
5:53 AM 28.9 °F - 28.9 °F 100% 30.08 in 9.0 mi Calm Calm - N/A   Clear
6:26 AM 28.4 °F - 28.4 °F 100% 30.07 in 2.5 mi Calm Calm - N/A   Partly Cloudy
6:29 AM 28.4 °F - 28.4 °F 100% 30.07 in 1.0 mi Calm Calm - N/A   Mist
6:36 AM 30.2 °F - 28.4 °F 93% 30.07 in 0.5 mi Calm Calm - N/A Fog Light Freezing Fog
6:53 AM 30.0 °F - 30.0 °F 100% 30.07 in 0.2 mi Calm Calm - N/A Fog Light Freezing Fog
7:53 AM 28.9 °F - 28.9 °F 100% 30.07 in 0.2 mi Calm Calm - N/A Fog Light Freezing Fog
8:17 AM 30.2 °F - 28.4 °F 93% 30.07 in 1.0 mi Calm Calm - N/A   Mist
8:19 AM 30.2 °F - 28.4 °F 93% 30.07 in 2.0 mi Calm Calm - N/A   Scattered Clouds
8:28 AM 30.2 °F - 30.2 °F 100% 30.07 in 6.0 mi Calm Calm - N/A   Partly Cloudy
8:53 AM 30.9 °F - 30.9 °F 100% 30.08 in 8.0 mi Calm Calm - N/A   Clear
9:20 AM 32.0 °F 28.7 °F 32.0 °F 100% 30.07 in 2.0 mi South 3.5 mph - N/A   Clear
9:34 AM 33.8 °F 30.8 °F 33.8 °F 100% 30.07 in 5.0 mi South 3.5 mph - N/A   Clear
9:53 AM 35.1 °F 32.2 °F 35.1 °F 100% 30.09 in 8.0 mi South 3.5 mph - N/A   Clear
10:53 AM 37.9 °F - 37.0 °F 97% 30.08 in 10.0 mi Calm Calm - N/A   Clear
11:53 AM 44.1 °F - 39.0 °F 82% 30.05 in 10.0 mi Calm Calm - N/A   Clear
12:53 PM 48.0 °F - 41.0 °F 77% 30.04 in 10.0 mi South 4.6 mph - N/A   Clear
1:53 PM 51.1 °F - 39.9 °F 66% 30.03 in 10.0 mi Calm Calm - N/A   Clear
2:53 PM 51.1 °F - 39.9 °F 66% 30.03 in 10.0 mi Calm Calm - N/A   Clear
3:53 PM 48.9 °F - 37.0 °F 64% 30.03 in 10.0 mi North 3.5 mph - N/A   Clear
4:53 PM 44.1 °F - 36.0 °F 73% 30.03 in 10.0 mi Calm Calm - N/A   Clear
5:53 PM 41.0 °F 39.0 °F 35.1 °F 79% 30.03 in 10.0 mi North 3.5 mph - N/A   Clear
6:53 PM 39.0 °F - 34.0 °F 82% 30.04 in 10.0 mi Calm Calm - N/A   Clear
7:53 PM 39.0 °F - 33.1 °F 79% 30.06 in 10.0 mi Calm Calm - N/A   Clear
8:53 PM 37.9 °F - 33.1 °F 83% 30.08 in 10.0 mi Calm Calm - N/A   Clear
9:53 PM 37.0 °F - 33.1 °F 86% 30.09 in 10.0 mi Calm Calm - N/A   Clear
11:53 PM 34.0 °F 31.0 °F 32.0 °F 92% 30.09 in 10.0 mi NE 3.5 mph - N/A   Clear